User: anonymous   Login
Location: Bangkok
(13.7500°N, 100.5170°E)
Time: 23:45:46
(UTC+07:00)
Language:

Cosmos 1802 Rocket - Orbit

View from above orbital plane
View from above orbital plane
View from above satellite
View from above satellite

Ground track
Ground track

The orbit data is extracted from the following two-line orbital elements,

1 17160U 86093B   17202.07208601 +.00000107 +00000-0 +96566-4 0  9991
2 17160 082.9261 039.1715 0040118 055.5284 058.4604 13.74594744537251
Epoch (UTC): 21 July 2017 01:43:48
Eccentricity: 0.0040118
inclination: 82.9261°
perigee height: 953 km
apogee height: 1012 km
right ascension of ascending node: 39.1715°
argument of perigee: 55.5284°
revolutions per day: 13.74594744
mean anomaly at epoch: 58.4604°
orbit number at epoch: 53725

The dashed part of the orbit path shows where the satellite is in the earth's shadow,  

DLR